Regional Weather Roundup
Issued by NWS

Home | Current Version | Previous Version | Graphics & Text | Print | Product List | Glossary Off
Versions: 1 2 3 4 5 6 7 8 9 10 11 12 13 14 15 16 17 18 19 20 21 22 23 24 25 26 27 28 29 30 31 32 33 34 35 36 37 38 39 40 41 42 43 44 45 46 47 48 49 50

000
ASUS43 KTOP 151508
RWRKS

WEATHER ROUNDUP FOR KANSAS
NATIONAL WEATHER SERVICE GOODLAND KS
900 AM CST MON JAN 15 2018

NOTE:  "FAIR" INDICATES FEW OR NO CLOUDS BELOW 12,000 FEET WITH NO
SIGNIFICANT WEATHER AND/OR OBSTRUCTIONS TO VISIBILITY.

KSZ001>006-013>018-027>032-041>047-151600-
NORTHWEST KANSAS

CITY           SKY/WX    TMP DP  RH WIND       PRES   REMARKS
GOODLAND       CLOUDY    16   1  51 N21G30    30.46R WCI  -1
HAYS           CLOUDY    14   5  67 N18G28    30.55R WCI  -3
HILL CITY      CLOUDY    14   2  58 N23G31    30.56R WCI  -5
RUSSELL        CLOUDY   N/A N/A N/A N18       30.54R FOG
$$

KSZ061>065-074>080-084>089-151600-
SOUTHWEST KANSAS

CITY           SKY/WX    TMP DP  RH WIND       PRES   REMARKS
DODGE CITY     CLOUDY    19  -2  39 N24G36    30.45R WCI   2
ELKHART        CLOUDY    28  26  92 NE20G28   30.40R WCI  14
GARDEN CITY    CLOUDY    21  14  74 NE21G29   30.46R WCI   5
GREAT BEND     FLURRIES  18  14  84 N21G28    30.50R WCI   1
LIBERAL        CLOUDY    25  17  72 NE22G30   30.44R WCI  10
PRATT          CLOUDY    21  16  81 N14G20    30.47R WCI   8
$$

KSZ066>073-081>083-090>101-151600-
SOUTHEAST KANSAS

CITY           SKY/WX    TMP DP  RH WIND       PRES   REMARKS
CHANUTE        CLOUDY    20  13  74 N16G23    30.48R WCI   6
COFFEYVILLE    SNOW      27  24  89 N16G25    30.47R VSB 1/2 WCI  15
HUTCHINSON     CLOUDY    18  12  77 N16G28    30.49R WCI   3
MEDICINE LODGE   N/A     24  18  77 N22G31    30.46R WCI   9
NEWTON         CLOUDY    16  11  80 N22       30.48R WCI  -2
PARSONS        CLOUDY    24  18  77 N13G20    30.48R WCI  12
WICHITA INTL   CLOUDY    22  14  71 N21G31    30.48R WCI   6
WICHITA JABRA  CLOUDY    19  11  70 N26       30.47R WCI   1
WICHITA MCCONL CLOUDY    21  12  67 NE20G26   30.47R WCI   6
WINFIELD       LGT SNOW  27  26  96 N24       30.47R FOG     WCI  12
$$

KSZ007>012-019>026-033>040-048>060-102>105-151600-
NORTHEAST KANSAS

CITY           SKY/WX    TMP DP  RH WIND       PRES   REMARKS
CONCORDIA      CLOUDY     6  -2  69 N17G23    30.56R WCI -13
EMPORIA        CLOUDY    15   9  76 N18G28    30.51R WCI  -2
LAWRENCE       CLOUDY    10   0  63 NW18G32   30.53R WCI  -8
MANHATTAN      CLOUDY    13   3  64 N15G24    30.57R WCI  -3
MARYSVILLE     SUNNY      9   0  66 NW22      30.54R WCI -11
OLATHE IND     CLOUDY    11   4  73 NW24G33   30.48R WCI  -9
OLATHE EXE     CLOUDY    11   4  73 NW17G26   30.47R WCI  -6
SALINA         CLOUDY    15   8  73 N21       30.56R WCI  -2
TOPEKA BILLARD CLOUDY    10  -1  61 NW20G26   30.54R WCI  -9
TOPEKA FORBES  CLOUDY    10  -2  58 NW25G31   30.52R WCI -11
$$




USA.gov is the U.S. government's official web portal to all federal, state and local government web resources and services.